Flag for Brazil Weather past 2 weeks in São Paulo, São Paulo, Brazil

Now
79 °F

Sunny.


Feels Like: 79 °F
Forecast: 55 / 80 °F
Wind: 9 mph from North

Location: Sao Paulo Airport

Current Time: Aug 2, 2015 at 3:23:11 PM

Latest Report: Aug 2, 2015 at 3:00 PM


Visibility: 10 mi

Pressure: 30.09 "Hg (27.57 "Hg at 765m altitude)

Humidity: 34%

Dew point: 48 °F

Location of São PauloLocation

Historic Weather in São Paulo — Graph

°F

São Paulo temperature yesterday

Maximum temperature yesterday: 81 °F (at 3:00 PM)
Minimum temperature yesterday: 59 °F (at 7:00 AM)
Average temperature yesterday: 69 °F

Past Weeks' High & Low Weather Summary

 TemperatureHumidityPressure
High81 °F (Aug 1, 3:00 PM)100% (Jul 28, 8:00 AM)30.33 "Hg (Jul 28, 8:00 AM)
Low36 °F (Jul 28, 8:00 AM)27% (Jul 28, 3:00 PM)30.04 "Hg (Jul 21, 1:00 AM)
Average64 °F69%30.20 "Hg
* Reported Jul 18 2:00 PM — Aug 2 2:00 PM, São Paulo, Weather by CustomWeather, © 2015

Note: Actual official high and low records may vary slightly from our data, if they occured in-between our weather recording intervals... More about our weather records

Advertising

São Paulo weather history for previous 24 hours

 ConditionsComfort  
Time TempWeatherWind HumidityBarometerVisibility
2:00 PM
Sun, Aug 2
77 °FSunny.8 mph39%30.12 "Hg10 mi
1:00 PM77 °FPassing clouds.12 mph39%30.15 "HgN/A
12:00 PM75 °FPassing clouds.12 mph36%30.18 "HgN/A
11:00 AM73 °FPassing clouds.7 mph47%30.21 "HgN/A
10:00 AM70 °FPassing clouds.7 mph53%30.21 "HgN/A
9:00 AM66 °FSunny.5 mph60%30.21 "Hg10 mi
8:00 AM63 °FSunny.5 mph64%30.18 "Hg10 mi
7:00 AM61 °FSunny.2 mph68%30.15 "Hg10 mi
6:00 AM61 °FSunny.5 mph63%30.15 "Hg10 mi
5:00 AM59 °FClear.2 mph68%30.12 "Hg10 mi
4:00 AM61 °FClear.2 mph63%30.12 "Hg10 mi
3:00 AM61 °FClear.No wind63%30.15 "Hg10 mi
2:00 AM63 °FClear.2 mph59%30.15 "Hg10 mi
1:00 AM64 °FClear.No wind56%30.18 "Hg10 mi
12:00 AM64 °FClear.2 mph60%30.18 "Hg10 mi
11:00 PM
Sat, Aug 1
66 °FClear.2 mph56%30.21 "Hg10 mi
10:00 PM68 °FClear.7 mph53%30.18 "Hg10 mi
9:00 PM66 °FClear.6 mph56%30.18 "Hg10 mi
8:00 PM66 °FClear.6 mph56%30.18 "Hg10 mi
7:00 PM68 °FClear.7 mph53%30.18 "Hg10 mi
6:00 PM73 °FClear.7 mph44%30.15 "Hg10 mi
5:00 PM77 °FPassing clouds.7 mph32%30.15 "HgN/A
4:00 PM79 °FPassing clouds.5 mph28%30.15 "HgN/A
3:00 PM81 °FSunny.3 mph28%30.18 "Hg10 mi
Weather by CustomWeather, © 2015

See weather overviewHow to use our weather pages